Flag for Cabo Verde Weather past 2 weeks in Santa Maria, Cabo Verde

Now
81 °F

Passing clouds.


Feels Like: 83 °F
Forecast: 77 / 88 °F
Wind: 16 mph from Northeast

Location: Sal

Current Time: Aug 29, 2015 at 6:37:36 PM

Latest Report: Aug 29, 2015 at 6:00 PM


Visibility: N/A

Pressure: 29.89 "Hg

Humidity: 66%

Dew point: 68 °F

Location of Santa MariaLocation

Historic Weather in Santa Maria — Graph

°F

Santa Maria temperature yesterday

Maximum temperature yesterday: 88 °F (at 1:00 PM)
Minimum temperature yesterday: 77 °F (at 3:00 AM)
Average temperature yesterday: 81 °F

Past Weeks' High & Low Weather Summary

 TemperatureHumidityPressure
High93 °F (Aug 25, 2:00 PM)94% (Aug 22, 2:00 AM)29.98 "Hg (Aug 22, 2:00 AM)
Low77 °F (Aug 18, 4:00 AM)52% (Aug 28, 1:00 PM)29.83 "Hg (Aug 18, 5:00 PM)
Average82 °F75%29.91 "Hg
* Reported Aug 14 5:00 PM — Aug 29 5:00 PM, Santa Maria, Weather by CustomWeather, © 2015

Note: Actual official high and low records may vary slightly from our data, if they occured in-between our weather recording intervals... More about our weather records

Advertising

Santa Maria weather history for previous 24 hours

 ConditionsComfort  
Time TempWeatherWind HumidityBarometerVisibility
5:00 PM
Sat, Aug 29
82 °FPassing clouds.18 mph58%29.89 "HgN/A
4:00 PM84 °FScattered clouds.18 mph55%29.89 "HgN/A
3:00 PM84 °FScattered clouds.20 mph58%29.89 "HgN/A
2:00 PM84 °FPartly sunny.17 mph58%29.92 "HgN/A
1:00 PM86 °FPartly sunny.20 mph55%29.92 "HgN/A
12:00 PM84 °FScattered clouds.21 mph58%29.95 "HgN/A
11:00 AM84 °FScattered clouds.20 mph58%29.95 "HgN/A
10:00 AM82 °FPartly sunny.20 mph66%29.95 "HgN/A
9:00 AM82 °FScattered clouds.18 mph62%29.95 "HgN/A
8:00 AM79 °FScattered clouds.16 mph70%29.92 "HgN/A
7:00 AM77 °FBroken clouds.15 mph69%29.92 "HgN/A
6:00 AM77 °FPartly sunny.16 mph69%29.92 "HgN/A
4:00 AM77 °FPartly cloudy.15 mph74%29.89 "HgN/A
3:00 AM77 °FPartly cloudy.14 mph74%29.89 "HgN/A
12:00 AM79 °FPassing clouds.13 mph70%29.98 "HgN/A
11:00 PM
Fri, Aug 28
79 °FPassing clouds.12 mph70%29.98 "HgN/A
10:00 PM79 °FPassing clouds.13 mph70%29.98 "HgN/A
9:00 PM79 °FPassing clouds.12 mph70%29.95 "HgN/A
8:00 PM79 °FPassing clouds.12 mph70%29.92 "HgN/A
7:00 PM79 °FPassing clouds.13 mph70%29.92 "HgN/A
Weather by CustomWeather, © 2015

See weather overviewHow to use our weather pages